GW1306 Weather Reports


time (UTC)temp
C
wind
direction
speed
KPH
gust
KPH
rain 1hr
cm
rain 24hr
cm
rain mn
cm
humidity
%
barometer
mb
20260504100511 10 109 0.0 0.0 0.00 0.00 0.00 66 1017.9
20260504081904 10 97 0.0 0.0 0.00 0.00 0.00 63 1018.5
20260504081401 10 95 0.0 0.0 0.00 0.00 0.00 63 1018.4
20260504080856 10 76 0.0 0.0 0.00 0.00 0.00 63 1018.4
20260504080354 10 76 0.0 0.0 0.00 0.00 0.00 62 1018.5
20260504070321 10 85 0.0 0.0 0.00 0.00 0.00 60 1018.5
20260504060241 9 79 0.0 0.0 0.00 0.00 0.00 61 1018.6
20260504050704 8 79 0.0 0.0 0.00 0.00 0.00 61 1018.5
20260504050200 8 79 0.0 0.0 0.00 0.00 0.00 61 1018.6
20260504045657 8 79 0.0 0.0 0.00 0.00 0.00 61 1018.6
20260504045152 8 79 0.0 0.0 0.00 0.00 0.00 61 1018.5
20260504044650 8 80 0.0 0.0 0.00 0.00 0.00 61 1018.5
20260504044147 9 80 0.0 0.0 0.00 0.00 0.00 61 1018.7
20260504043644 8 79 0.0 0.0 0.00 0.00 0.00 60 1018.5
20260504043141 8 79 0.0 0.0 0.00 0.00 0.00 61 1018.6
20260504042638 8 79 0.0 0.0 0.00 0.00 0.00 61 1018.7
20260504042135 8 79 0.0 0.0 0.00 0.00 0.00 62 1018.4
20260504041630 8 81 0.0 0.0 0.00 0.00 0.00 62 1018.5
20260504041127 8 81 0.0 0.0 0.00 0.00 0.00 63 1018.4
20260504040624 8 83 0.0 0.0 0.00 0.00 0.00 63 1018.4
20260504040121 8 83 0.0 0.0 0.00 0.00 0.00 63 1018.4
20260504035618 8 166 0.0 0.0 0.00 0.00 0.00 64 1018.4
20260504035114 9 104 0.0 0.0 0.00 0.00 0.00 64 1018.3
20260504034612 9 82 0.0 0.0 0.00 0.00 0.00 64 1018.5
20260504034109 9 82 0.0 0.0 0.00 0.00 0.00 64 1018.3
20260504033607 9 82 0.0 0.0 0.00 0.00 0.00 64 1018.2
20260504033104 10 82 0.0 0.0 0.00 0.00 0.00 64 1018.3
20260504032601 10 82 0.0 0.0 0.00 0.00 0.00 63 1018.2
20260504032058 10 82 0.0 0.0 0.00 0.00 0.00 64 1018.0
20260504031554 10 83 0.0 0.0 0.00 0.00 0.00 65 1018.0
20260504031050 10 83 0.0 0.0 0.00 0.00 0.00 64 1017.9
20260504030548 10 82 0.0 0.0 0.00 0.00 0.00 64 1018.0
20260504030044 10 82 0.0 0.0 0.00 0.00 0.00 64 1018.1
20260504025541 10 82 0.0 0.0 0.00 0.00 0.00 63 1018.0
20260504025038 10 83 0.0 0.0 0.00 0.00 0.00 62 1018.0
20260504024535 10 83 0.0 0.0 0.00 0.00 0.00 62 1017.9
20260504024032 10 83 0.0 0.0 0.00 0.00 0.00 62 1018.3
20260504023529 10 83 0.0 0.0 0.00 0.00 0.00 59 1018.0
20260504023024 10 83 0.0 0.0 0.00 0.00 0.00 59 1018.0
20260504022520 10 83 0.0 0.0 0.00 0.00 0.00 57 1018.0
20260504022017 10 82 0.0 1.6 0.00 0.00 0.00 57 1018.0
20260504021515 10 89 0.0 0.0 0.00 0.00 0.00 56 1017.9
20260504021012 11 89 0.0 0.0 0.00 0.00 0.00 55 1017.7
20260504020508 11 89 0.0 0.0 0.00 0.00 0.00 54 1017.9
20260504020005 11 89 0.0 0.0 0.00 0.00 0.00 53 1017.9
20260504015501 11 89 0.0 0.0 0.00 0.00 0.00 52 1017.9
20260504014957 11 89 0.0 0.0 0.00 0.00 0.00 50 1017.9
20260504014453 11 89 0.0 0.0 0.00 0.00 0.00 49 1017.8
20260504013950 11 89 0.0 0.0 0.00 0.00 0.00 48 1017.7
20260504013449 11 89 0.0 0.0 0.00 0.00 0.00 49 1017.8
20260504012944 11 89 0.0 0.0 0.00 0.00 0.00 50 1017.5
20260504012443 11 89 0.0 0.0 0.00 0.00 0.00 49 1017.6
20260504011940 11 89 0.0 0.0 0.00 0.00 0.00 48 1017.7
20260504011436 11 89 0.0 0.0 0.00 0.00 0.00 47 1017.6
20260504010932 12 89 0.0 0.0 0.00 0.00 0.00 48 1017.5
20260504010428 12 89 0.0 0.0 0.00 0.00 0.00 46 1017.6
20260504005925 12 89 0.0 0.0 0.00 0.00 0.00 46 1017.7
20260504005422 12 89 0.0 0.0 0.00 0.00 0.00 45 1017.6
20260504004919 12 89 0.0 0.0 0.00 0.00 0.00 46 1017.4
20260504004417 12 89 0.0 0.0 0.00 0.00 0.00 47 1017.4
20260504003914 12 89 0.0 0.0 0.00 0.00 0.00 47 1017.4
20260504003410 12 92 0.0 0.0 0.00 0.00 0.00 45 1017.3
20260504002907 13 185 0.0 0.0 0.00 0.00 0.00 43 1017.3
20260504002404 13 185 0.0 0.0 0.00 0.00 0.00 42 1017.2
20260504001901 13 185 0.0 0.0 0.00 0.00 0.00 39 1017.1
20260504001359 13 185 0.0 0.0 0.00 0.00 0.00 40 1017.1
20260504000855 14 186 0.0 0.0 0.00 0.00 0.00 38 1017.0
20260504000354 14 184 0.0 0.0 0.00 0.00 0.00 38 1017.1
20260503235849 15 183 0.0 0.0 0.00 0.00 0.00 36 1017.1
20260503235347 15 183 0.0 0.0 0.00 0.00 0.00 35 1016.9
20260503234844 15 178 0.0 0.0 0.00 0.00 0.00 35 1017.0
20260503234342 15 229 1.6 1.6 0.00 0.00 0.00 33 1016.8
20260503233839 15 179 0.0 0.0 0.00 0.00 0.00 34 1016.8
20260503233335 15 188 0.0 1.6 0.00 0.00 0.00 32 1016.6
20260503232832 15 203 0.0 1.6 0.00 0.00 0.00 33 1016.6
20260503232329 16 94 0.0 0.0 0.00 0.00 0.00 32 1016.7
20260503231827 16 189 0.0 1.6 0.00 0.00 0.00 33 1016.7
20260503231324 16 114 0.0 0.0 0.00 0.00 0.00 33 1016.7
20260503230820 16 92 0.0 0.0 0.00 0.00 0.00 31 1016.5
20260503230317 16 174 0.0 0.0 0.00 0.00 0.00 33 1016.7
20260503225815 16 189 0.0 0.0 0.00 0.00 0.00 31 1016.6
20260503225310 16 239 1.6 3.2 0.00 0.00 0.00 31 1016.6
20260503224807 16 248 1.6 3.2 0.00 0.00 0.00 31 1016.5
20260503224304 16 94 0.0 0.0 0.00 0.00 0.00 32 1016.6
20260503223802 17 245 1.6 1.6 0.00 0.00 0.00 31 1016.8
20260503223259 17 175 1.6 1.6 0.00 0.00 0.00 32 1016.7
20260503222755 16 56 0.0 1.6 0.00 0.00 0.00 32 1016.6
20260503222254 16 58 1.6 1.6 0.00 0.00 0.00 31 1016.7
20260503221751 16 234 3.2 3.2 0.00 0.00 0.00 31 1016.6
20260503221249 17 210 1.6 3.2 0.00 0.00 0.00 31 1016.6
20260503220745 17 75 0.0 1.6 0.00 0.00 0.00 30 1016.8
20260503220243 17 64 0.0 0.0 0.00 0.00 0.00 30 1016.6
20260503215739 17 80 0.0 1.6 0.00 0.00 0.00 34 1016.7
20260503215236 17 72 1.6 4.8 0.00 0.00 0.00 32 1016.8
20260503214734 16 261 1.6 3.2 0.00 0.00 0.00 33 1016.8
20260503214231 16 224 1.6 1.6 0.00 0.00 0.00 31 1016.7
20260503213729 17 210 1.6 3.2 0.00 0.00 0.00 30 1016.7
20260503213226 17 229 3.2 4.8 0.00 0.00 0.00 30 1016.5
20260503212723 16 90 1.6 1.6 0.00 0.00 0.00 34 1016.5
20260503212221 16 71 1.6 1.6 0.00 0.00 0.00 30 1016.8
20260503211718 16 237 3.2 3.2 0.00 0.00 0.00 31 1016.6
20260503211214 17 188 1.6 1.6 0.00 0.00 0.00 31 1016.6
20260503210709 17 69 1.6 1.6 0.00 0.00 0.00 32 1016.8
20260503210207 17 78 0.0 0.0 0.00 0.00 0.00 34 1016.7
20260503205703 17 259 1.6 3.2 0.00 0.00 0.00 31 1016.8
20260503205159 17 223 1.6 3.2 0.00 0.00 0.00 34 1016.8
20260503204655 17 82 1.6 1.6 0.00 0.00 0.00 32 1016.6
20260503204153 17 95 1.6 1.6 0.00 0.00 0.00 31 1016.8
20260503203649 16 140 0.0 1.6 0.00 0.00 0.00 31 1017.0
20260503203148 16 237 1.6 1.6 0.00 0.00 0.00 33 1017.0
20260503202644 16 245 0.0 1.6 0.00 0.00 0.00 32 1017.0
20260503202142 16 179 1.6 3.2 0.00 0.00 0.00 33 1017.0
20260503201640 16 316 0.0 1.6 0.00 0.00 0.00 32 1017.1
20260503201137 16 283 1.6 3.2 0.00 0.00 0.00 33 1017.2
20260503200633 16 68 1.6 1.6 0.00 0.00 0.00 32 1017.1
20260503200130 16 192 1.6 3.2 0.00 0.00 0.00 35 1017.3
20260503195627 16 37 3.2 4.8 0.00 0.00 0.00 33 1017.4
20260503195124 16 237 4.8 4.8 0.00 0.00 0.00 34 1017.4
20260503194621 16 246 4.8 4.8 0.00 0.00 0.00 32 1017.5
20260503194116 16 122 0.0 1.6 0.00 0.00 0.00 37 1017.4
20260503193613 16 239 6.4 8.0 0.00 0.00 0.00 32 1017.6
20260503193108 16 84 0.0 1.6 0.00 0.00 0.00 34 1017.7
20260503192604 16 292 3.2 4.8 0.00 0.00 0.00 34 1017.7
20260503192100 16 248 0.0 1.6 0.00 0.00 0.00 37 1017.8
20260503191557 16 249 3.2 4.8 0.00 0.00 0.00 34 1017.8
20260503191054 16 45 0.0 1.6 0.00 0.00 0.00 36 1017.9
20260503190551 15 109 3.2 4.8 0.00 0.00 0.00 34 1018.0
20260503190048 15 255 1.6 3.2 0.00 0.00 0.00 34 1018.1
20260503185545 16 240 3.2 4.8 0.00 0.00 0.00 36 1018.1
20260503185044 16 47 1.6 1.6 0.00 0.00 0.00 34 1018.0
20260503184541 16 234 1.6 1.6 0.00 0.00 0.00 35 1018.3
20260503184038 15 201 0.0 1.6 0.00 0.00 0.00 36 1018.4
20260503183534 16 77 0.0 0.0 0.00 0.00 0.00 35 1018.1
20260503183031 15 91 0.0 0.0 0.00 0.00 0.00 35 1018.5
20260503182530 16 77 3.2 4.8 0.00 0.00 0.00 37 1018.4
20260503182027 15 47 1.6 1.6 0.00 0.00 0.00 36 1018.4
20260503181524 15 58 1.6 1.6 0.00 0.00 0.00 36 1018.3
20260503181020 15 220 3.2 3.2 0.00 0.00 0.00 34 1018.4
20260503180518 15 27 0.0 1.6 0.00 0.00 0.00 34 1018.5
20260503180015 15 92 4.8 8.0 0.00 0.00 0.00 37 1018.7
20260503175512 15 282 1.6 1.6 0.00 0.00 0.00 34 1018.5
20260503175009 15 251 3.2 3.2 0.00 0.00 0.00 34 1018.6
20260503174507 15 70 1.6 1.6 0.00 0.00 0.00 38 1018.4
20260503174002 15 253 4.8 4.8 0.00 0.00 0.00 43 1018.7
20260503173457 15 212 1.6 1.6 0.00 0.00 0.00 38 1018.8
20260503172954 14 235 1.6 1.6 0.00 0.00 0.00 35 1018.8
20260503172452 14 93 3.2 4.8 0.00 0.00 0.00 36 1018.7
20260503171949 13 73 3.2 4.8 0.00 0.00 0.00 36 1018.7
20260503171445 13 263 4.8 4.8 0.00 0.00 0.00 38 1019.0
20260503170943 13 235 0.0 3.2 0.00 0.00 0.00 36 1018.7
20260503170438 14 243 3.2 4.8 0.00 0.00 0.00 38 1018.8
20260503150831 11 239 3.2 3.2 0.00 0.00 0.00 40 1019.4
20260503150327 11 221 3.2 3.2 0.00 0.00 0.00 42 1019.5
20260503140251 10 181 0.0 0.0 0.00 0.00 0.00 48 1019.7
20260503131221 8 208 1.6 1.6 0.00 0.00 0.00 54 1019.5
20260503130719 8 207 1.6 3.2 0.00 0.00 0.00 51 1019.5
20260503130216 8 87 1.6 1.6 0.00 0.00 0.00 52 1019.6
20260503120141 6 211 3.2 3.2 0.00 0.00 0.00 62 1019.2
20260503110609 5 127 0.0 0.0 0.00 0.00 0.00 69 1018.6
20260503110106 5 220 0.0 1.6 0.00 0.00 0.00 68 1018.3